weather.gov     
National Weather Service

Other Surface Observations
NWS Homepage
This page is being discontinued on March 12, 2014.
The same data is available at this site. Please update your bookmarks.
Thank you, and we apologize for the inconvenience.
Please send an email to SR-SRH.Webmaster@noaa.gov with any concerns.


Current Version
Previous Version:    01  02  03  04  05  06  07  08  09  10  11  12  13  14  15  16  17  18  19  20  21  22  23  24  25  26  27  28  29  30  
   31  32  33  34  35  36  37  38  39  40  41  42  43  44  45  46  47  48  49  50  51  52  53  54  55  56  57  58  59  60  
[Printable]
262
SXUS52 KTAE 182218
OSOTAE
OSOTAE
North Florida/South Alabama/Southwest Georgia Weather Roundup
National Weather Service Tallahassee Florida
500 PM EST THU DEC 18 2014

Note: "fair" indicates few or no clouds below 12,000 feet with no
significant weather and/or obstructions to visibility.

!FLZ017-115-028-034-025-182300
...North Florida...

CITY           SKY/WX    TMP DP  RH WIND       PRES   REMARKS
TALLAHASSEE    PTCLDY    61  42  49 W3        30.11S
APALACHICOLA   PTCLDY    62  49  62 S6        30.12F
PERRY          MOCLDY    62  48  61 SW7       30.11S
CROSS CITY       N/A     61  46  57 W7        30.11R
JACKSONVILLE   CLOUDY    59  45  59 SW5       30.09S
$$

!FLZ112-006-005-002-011-182300
...Florida Panhandle...

CITY           SKY/WX    TMP DP  RH WIND       PRES   REMARKS
MARIANNA       CLEAR     63  35  35 W3        30.10S
BONIFAY        FAIR      62  39  42 CALM      30.12R
PANAMA CITY NW FAIR      59  46  62 S7        30.11R
TYNDALL AFB    MOCLDY    59  46  62 SW5       30.12F
TYND DRONE APT NOT AVBL
DE FUNIAK SPR  FAIR      64  35  35 CALM      30.10F
EGLIN AFB      PTCLDY    59  47  64 SW5       30.12R
DESTIN         CLEAR     60  45  57 CALM      30.11F
HURLBURT       CLEAR     60  42  52 SW5       30.11S
CRESTVIEW      PTCLDY    64  38  38 W3        30.13S
PENSACOLA      CLEAR     59  43  55 S5        30.12S
$$

!ALZ063-066-182300
...South Alabama...

CITY           SKY/WX    TMP DP  RH WIND       PRES   REMARKS
DOTHAN         MOCLDY    63  30  28 W5        30.13S
OZARK CAIRNS   PTCLDY    63  33  33 W2        30.11R
FT RUCKER HELI PTCLDY    62  31  31 NW3       30.10R
RUCKER HELI 3  MOCLDY    61  33  34 SW1       30.13R
RUCKER HELI 2  FAIR      62  37  39 CALM      30.11R
FLORALA APT    MOCLDY    63  36  36 NW3       30.14R
ANDALUSIA      MOCLDY    66  32  28 N3        30.12R
TROY           PTCLDY    60  31  33 NW5       30.13R
EUFALA         FAIR      62  32  32 CALM      30.10R
MOBILE         PTCLDY    62  43  49 E5        30.13R
$$

!GAZ120>161-182300
...Southwest and South Central Georgia...

CITY           SKY/WX    TMP DP  RH WIND       PRES   REMARKS
THOMASVILLE    FAIR      61  41  48 W3        30.12R
BAINBRIDGE     CLEAR     64  36  34 W3        30.11R
MOODY AFB      CLEAR     61  38  42 W3        30.09F
VALDOSTA       CLEAR     58  41  53 VRB3      30.09F
MOULTRIE       CLEAR     61  41  48 CALM      30.11R
BLAKELY        MOCLDY    64  28  25 SW5       30.11R
ALBANY         CLEAR     64  36  35 SW6       30.11F
TIFTON         FAIR      63  28  26 CALM      30.09S
FITZGERALD     FAIR      64  25  23 CALM      30.10F
CORDELE        FAIR      65  23  20 SW3       30.09F
AMERICUS       CLOUDY    63  28  27 W3        30.10S
HOMERVILLE     FAIR      63  41  45 W3        30.10S
$$

!GMZ750-755-770-775-182300
...Coastal and Buoy Obs...

STATION/POSITION TIME  TEMP    WIND        PRES    VSBY  WAVE
                       AIR SEA DIR/SP/G                  HT/PER
                 (UTC) (F)     (DEG/KT/KT) (MB)    (MI)  (FT/S)
KEATON BEACH     2200   56     250/  7/  7 1020.0R
CEDAR KEY        2200   59     300/  6/  8 1020.5R
C TOWER          2200   58     230/  3/  4 1020.1S
APALACHICOLA BUO 2200   64 71   30/  2/  4 1020.1R         1
PANAMA CITY BUOY 2132   68 76  240/  2/  4 1020.0R         1
MOBILE BUOY      2200   67 74  150/  8/ 10 1018.7F         1/ 4
ORANGE BCH AL BU 2200   61 65  110/  6/  8 1019.3F         1
$$




U.S. Dept. of Commerce
NOAA National Weather Service
1325 East West Highway
Silver Spring, MD 20910
E-mail: w-nws.webmaster@noaa.gov
Page last modified: May 16, 2007
NATIONAL WEATHER SERVICE: for Safety, for Work, for Fun - FOR LIFE